Location: Hillern
(53.0557°N, 9.8577°E)
Time: 21:19:14
(UTC+00:00)

Okean 3 Rocket - Pass Details

Date: 19 May 2025
Orbit: 610 x 638 km, 82.5° (Epoch: 15 June)

Event Time Altitude Azimuth Distance (km) Brightness Sun altitude
Rises 21:50:09 0° 350° (N) 2,900 8.7 -14.6°
Reaches altitude 10° 21:52:24 10° 354° (N) 1,993 7.4 -14.7°
Maximum altitude 21:56:48 66° 77° (ENE) 684 3.7 -14.9°
Enters shadow 21:59:13 26° 153° (SSE) 1,238 4.5 -15.0°
